Weather History for KPWC - December, 2012

Change the Weather History Date:

Tuesday, December 4, 2012

  Actual Average Record
Temperature  
Mean Temperature 18 °F -  
Max Temperature 26 °F 28 °F 42 °F (1998)
Min Temperature 8 °F 15 °F -11 °F (2005)
Degree Days  
Heating Degree Days 47    
Moisture  
Dew Point 9 °F    
Average Humidity 67    
Maximum Humidity 92    
Minimum Humidity 50    
Precipitation  
Precipitation 0.00 in - - ()
Sea Level Pressure  
Sea Level Pressure 30.17 in    
Wind  
Wind Speed 8 mph (NW)    
Max Wind Speed 14 mph    
Max Gust Speed 22 mph    
Visibility 10 miles    
Events      
Averages and records for this station are not official NWS values.
T = Trace of Precipitation, MM = Missing Value Source: NWS Daily Summary

Daily Weather History Graph

Daily Weather History Graph

Search for Another Location

Airport or City:

Trip Planner

Search our weather history database for the weather conditions in past years. The results will help you decide how hot, cold, wet, or windy it might be!

Date:

Astronomy

Dec. 04, 2012 Rise Set
Actual Time 7:45 AM CST 4:30 PM CST
Civil Twilight 7:10 AM CST 5:04 PM CST
Nautical Twilight 6:32 AM CST 5:42 PM CST
Astronomical Twilight 5:56 AM CST 6:19 PM CST
Moon 10:33 PM CST (12/4) 11:27 AM CST (12/4)
Length of Visible Light 9h 53m
Length of Day
8h 44m
Waning Gibbous, 69% of the Moon is Illuminated
Dec 4
Waning Gibbous
Dec 6
Last Quarter
Dec 13
New
Dec 19
First Quarter
Dec 28
Full

Hourly Weather History & Observations

Time (CST) Temp. Windchill Dew Point Humidity Pressure Visibility Wind Dir Wind Speed Gust Speed Precip Events Conditions
12:13 AM 26.6 °F 15.7 °F 15.8 °F 64% 29.88 in 10.0 mi WNW 12.7 mph 20.7 mph N/A   Clear
12:33 AM 26.6 °F 18.2 °F 15.8 °F 64% 29.89 in 10.0 mi West 8.1 mph 17.3 mph N/A   Clear
12:53 AM 26.6 °F 16.2 °F 15.8 °F 64% 29.90 in 10.0 mi West 11.5 mph 17.3 mph N/A   Clear
1:13 AM 24.8 °F 12.9 °F 12.2 °F 59% 29.89 in 10.0 mi West 13.8 mph 19.6 mph N/A   Clear
1:33 AM 24.8 °F 14.6 °F 12.2 °F 59% 29.91 in 10.0 mi WNW 10.4 mph 16.1 mph N/A   Clear
1:53 AM 23.0 °F 11.7 °F 10.4 °F 59% 29.92 in 10.0 mi West 11.5 mph 21.9 mph N/A   Clear
2:11 AM 21.2 °F 8.3 °F 10.4 °F 63% 29.93 in 10.0 mi West 13.8 mph 20.7 mph N/A   Clear
2:33 AM 21.2 °F 11.7 °F 10.4 °F 63% 29.95 in 10.0 mi WNW 8.1 mph - N/A   Clear
2:53 AM 21.2 °F 12.6 °F 12.2 °F 68% 29.96 in 10.0 mi West 6.9 mph - N/A   Clear
3:13 AM 19.4 °F 9.5 °F 12.2 °F 74% 29.96 in 10.0 mi West 8.1 mph - N/A   Clear
3:33 AM 19.4 °F 7.9 °F 10.4 °F 68% 29.97 in 10.0 mi West 10.4 mph - N/A   Clear
3:53 AM 19.4 °F 10.4 °F 10.4 °F 68% 29.98 in 10.0 mi West 6.9 mph - N/A   Clear
4:12 AM 19.4 °F 10.4 °F 10.4 °F 68% 29.99 in 10.0 mi WNW 6.9 mph - N/A   Clear
4:33 AM 19.4 °F 9.5 °F 10.4 °F 68% 30.00 in 10.0 mi WNW 8.1 mph - N/A   Clear
4:53 AM 17.6 °F 9.3 °F 10.4 °F 73% 30.00 in 10.0 mi NW 5.8 mph - N/A   Clear
5:12 AM 17.6 °F 7.3 °F 10.4 °F 73% 30.02 in 10.0 mi WNW 8.1 mph - N/A   Clear
5:33 AM 17.6 °F 8.2 °F 10.4 °F 73% 30.02 in 10.0 mi WNW 6.9 mph - N/A   Clear
5:53 AM 17.6 °F 7.3 °F 10.4 °F 73% 30.03 in 10.0 mi WNW 8.1 mph - N/A   Scattered Clouds
6:13 AM 17.6 °F 5.7 °F 10.4 °F 73% 30.04 in 10.0 mi WNW 10.4 mph - N/A   Mostly Cloudy
6:33 AM 17.6 °F 7.3 °F 8.6 °F 68% 30.05 in 10.0 mi WNW 8.1 mph - N/A   Mostly Cloudy
6:53 AM 15.8 °F 7.2 °F 8.6 °F 73% 30.06 in 10.0 mi WNW 5.8 mph - N/A   Clear
7:12 AM 15.8 °F 5.1 °F 8.6 °F 73% 30.08 in 10.0 mi WNW 8.1 mph - N/A   Clear
7:53 AM 15.8 °F 6.1 °F 6.8 °F 68% 30.10 in 10.0 mi WNW 6.9 mph - N/A   Clear
8:13 AM 15.8 °F 3.4 °F 6.8 °F 68% 30.11 in 10.0 mi WNW 10.4 mph - N/A   Clear
8:33 AM 15.8 °F 7.2 °F 6.8 °F 68% 30.12 in 10.0 mi WNW 5.8 mph - N/A   Clear
8:53 AM 15.8 °F 4.2 °F 6.8 °F 68% 30.13 in 10.0 mi WNW 9.2 mph 16.1 mph N/A   Clear
9:13 AM 15.8 °F 2.7 °F 6.8 °F 68% 30.14 in 10.0 mi NW 11.5 mph 16.1 mph N/A   Clear
9:33 AM 17.6 °F 5.0 °F 6.8 °F 63% 30.15 in 10.0 mi NW 11.5 mph - N/A   Clear
9:53 AM 17.6 °F 8.2 °F 6.8 °F 63% 30.16 in 10.0 mi WNW 6.9 mph - N/A   Clear
10:13 AM 17.6 °F 5.7 °F 6.8 °F 63% 30.17 in 10.0 mi West 10.4 mph 16.1 mph N/A   Clear
10:33 AM 19.4 °F 7.9 °F 6.8 °F 58% 30.18 in 10.0 mi WNW 10.4 mph - N/A   Clear
10:53 AM 19.4 °F 8.6 °F 8.6 °F 63% 30.19 in 10.0 mi NW 9.2 mph 16.1 mph N/A   Clear
11:12 AM 19.4 °F 6.6 °F 6.8 °F 58% 30.19 in 10.0 mi NW 12.7 mph 18.4 mph N/A   Clear
11:33 AM 19.4 °F 9.5 °F 8.6 °F 63% 30.19 in 10.0 mi NW 8.1 mph 17.3 mph N/A   Clear
11:53 AM 21.2 °F 10.1 °F 8.6 °F 58% 30.20 in 10.0 mi WNW 10.4 mph 16.1 mph N/A   Clear
12:12 PM 21.2 °F 8.9 °F 8.6 °F 58% 30.20 in 10.0 mi NW 12.7 mph 18.4 mph N/A   Clear
12:33 PM 21.2 °F 10.1 °F 8.6 °F 58% 30.21 in 10.0 mi NW 10.4 mph 16.1 mph N/A   Clear
12:53 PM 23.0 °F 13.1 °F 8.6 °F 54% 30.22 in 10.0 mi NW 9.2 mph - N/A   Clear
1:13 PM 23.0 °F 13.9 °F 8.6 °F 54% 30.22 in 10.0 mi WNW 8.1 mph - N/A   Clear
1:33 PM 23.0 °F 13.1 °F 8.6 °F 54% 30.23 in 10.0 mi NW 9.2 mph - N/A   Clear
1:53 PM 24.8 °F 15.3 °F 8.6 °F 50% 30.23 in 10.0 mi NW 9.2 mph - N/A   Clear
2:13 PM 24.8 °F 16.9 °F 8.6 °F 50% 30.22 in 10.0 mi NW 6.9 mph - N/A   Clear
2:33 PM 24.8 °F 15.3 °F 8.6 °F 50% 30.22 in 10.0 mi NNW 9.2 mph - N/A   Clear
2:52 PM 24.8 °F 17.9 °F 8.6 °F 50% 30.24 in 10.0 mi NW 5.8 mph - N/A   Clear
3:12 PM 24.8 °F 16.1 °F 8.6 °F 50% 30.24 in 10.0 mi North 8.1 mph - N/A   Clear
3:32 PM 23.0 °F 14.7 °F 8.6 °F 54% 30.26 in 10.0 mi NNW 6.9 mph - N/A   Clear
3:53 PM 23.0 °F 13.9 °F 8.6 °F 54% 30.27 in 10.0 mi NW 8.1 mph - N/A   Clear
4:13 PM 21.2 °F 13.6 °F 8.6 °F 58% 30.28 in 10.0 mi NNW 5.8 mph - N/A   Clear
4:53 PM 21.2 °F 16.4 °F 8.6 °F 58% 30.30 in 10.0 mi NNW 3.5 mph - N/A   Clear
5:13 PM 19.4 °F 14.3 °F 8.6 °F 63% 30.30 in 10.0 mi NW 3.5 mph - N/A   Clear
5:33 PM 19.4 °F - 8.6 °F 63% 30.31 in 10.0 mi Calm Calm - N/A   Clear
5:52 PM 19.4 °F - 8.6 °F 63% 30.32 in 10.0 mi Calm Calm - N/A   Clear
6:12 PM 17.6 °F - 8.6 °F 68% 30.32 in 10.0 mi Calm Calm - N/A   Clear
6:33 PM 17.6 °F - 8.6 °F 68% 30.32 in 10.0 mi Calm Calm - N/A   Clear
6:53 PM 15.8 °F 10.2 °F 8.6 °F 73% 30.32 in 10.0 mi NNW 3.5 mph - N/A   Clear
7:13 PM 15.8 °F - 8.6 °F 73% 30.32 in 10.0 mi Calm Calm - N/A   Clear
7:33 PM 14.0 °F 8.2 °F 8.6 °F 79% 30.33 in 10.0 mi North 3.5 mph - N/A   Clear
7:53 PM 14.0 °F 8.2 °F 8.6 °F 79% 30.34 in 10.0 mi North 3.5 mph - N/A   Clear
8:13 PM 15.8 °F - 8.6 °F 73% 30.35 in 10.0 mi Calm Calm - N/A   Clear
8:33 PM 14.0 °F 6.5 °F 8.6 °F 79% 30.35 in 10.0 mi North 4.6 mph - N/A   Clear
8:53 PM 15.8 °F - 8.6 °F 73% 30.36 in 10.0 mi Calm Calm - N/A   Clear
9:13 PM 14.0 °F - 10.4 °F 86% 30.36 in 7.0 mi Calm Calm - N/A   Clear
9:33 PM 12.2 °F - 8.6 °F 85% 30.37 in 10.0 mi Calm Calm - N/A   Clear
9:53 PM 12.2 °F - 8.6 °F 85% 30.37 in 10.0 mi Calm Calm - N/A   Clear
10:13 PM 12.2 °F - 8.6 °F 85% 30.38 in 10.0 mi Calm Calm - N/A   Clear
10:32 PM 10.4 °F - 8.6 °F 92% 30.38 in 10.0 mi Calm Calm - N/A   Clear
10:53 PM 12.2 °F - 8.6 °F 85% 30.39 in 10.0 mi Calm Calm - N/A   Clear
11:12 PM 10.4 °F - 8.6 °F 92% 30.40 in 10.0 mi Calm Calm - N/A   Clear
11:33 PM 10.4 °F - 6.8 °F 85% 30.39 in 7.0 mi Calm Calm - N/A   Clear
11:53 PM 8.6 °F - 6.8 °F 92% 30.39 in 10.0 mi Calm Calm - N/A   Clear